Temperature
28 25 24 25 25 26 27 27 26 27 28 27 26 25 25 25 24 24 24 23 23 22 22 22 22 22 21 21 21 21 21 20 20 20 19 19 19 19 19 19 19 19 19 19
25 25 26 27 28 28 27 26 26 27 28 27 25 25 25 25 24 24 24 23 23 22 22 22 22 22 22 21 21 21 21 20 20 20 20 20 19 19 19 19 19 19 19 19
25 26 28 28 28 28 27 26 26 27 27 27 26 24 24 25 25 25 24 23 23 23 22 22 22 22 22 21 21 21 21 20 20 20 20 19 19 19 19 19 19 19 19 19
26 27 29 28 28 28 27 28 28 28 26 24 25 23 23 23 24 24 24 23 23 23 22 22 22 22 22 22 21 21 21 20 20 20 20 20 20 19 19 19 19 19 19 19
26 28 28 28 28 29 28 29 28 28 26 24 24 23 23 22 23 23 23 24 23 23 23 22 22 22 22 22 21 21 21 21 20 20 20 20 20 20 19 19 19 19 19 19
27 28 28 28 29 29 29 28 26 24 22 23 24 23 22 22 23 23 23 24 24 23 23 23 23 22 22 22 21 21 21 21 20 20 20 20 20 20 19 19 19 19 19 19
26 27 28 29 28 28 27 24 23 23 22 22 23 23 22 23 24 24 23 24 24 24 23 23 22 22 22 22 21 21 21 21 20 20 20 20 20 20 20 19 19 19 19 19
24 24 27 28 27 27 26 24 23 23 22 22 23 23 23 24 24 24 25 24 24 23 23 23 23 22 22 22 22 21 21 21 21 20 20 20 20 20 19 19 19 19 19 19
24 24 27 28 29 28 27 24 23 21 22 22 22 22 23 24 23 23 24 24 23 23 23 23 23 22 22 22 22 21 21 21 21 21 20 20 20 20 19 19 19 19 19 19
24 24 25 27 28 27 27 25 21 21 22 22 22 22 22 23 23 22 22 23 23 23 23 23 23 23 22 22 22 21 21 21 21 21 20 20 20 20 20 19 19 19 19 19
23 23 24 25 26 26 26 25 22 19 20 21 21 21 23 22 22 22 22 23 23 23 23 23 23 22 22 22 21 21 21 21 20 20 20 20 20 20 19 19 19 19 19 19
22 20 21 23 24 26 25 24 22 22 21 19 20 21 23 22 22 22 22 23 23 23 23 23 23 22 22 21 21 21 21 20 20 20 20 20 20 19 19 19 19 19 19 19
22 20 20 21 22 23 24 24 23 20 19 19 20 21 22 21 21 22 22 22 23 23 23 23 22 22 21 21 21 21 21 20 20 20 20 20 19 19 19 19 19 19 19 18
22 19 20 21 21 22 23 24 24 21 19 20 20 21 21 21 21 21 22 22 22 22 22 22 22 21 21 21 21 21 20 20 20 20 19 19 19 19 19 19 19 18 18 18
20 20 21 21 22 23 24 24 24 23 21 21 21 20 20 20 20 21 21 21 21 21 21 21 21 21 21 20 20 20 20 20 19 19 19 19 19 18 18 18 18 18 18 18
18 20 20 21 22 23 23 24 24 23 22 21 21 20 20 20 21 20 20 20 20 20 20 20 20 20 20 20 20 20 20 19 19 19 19 19 19 18 18 18 18 18 18 18
18 18 18 19 20 22 21 22 22 22 21 21 20 19 19 19 19 20 20 20 19 19 19 19 20 20 19 19 19 19 19 19 19 18 18 18 18 18 18 18 18 17 17 17
18 17 16 17 20 20 20 21 22 21 20 20 19 19 19 18 19 20 20 19 19 19 19 19 19 19 19 19 19 19 18 18 18 18 18 18 18 17 17 17 17 17 17 17
17 17 16 16 18 19 20 21 21 20 19 19 19 18 18 19 18 18 19 19 19 19 19 19 18 18 18 18 18 18 18 18 18 17 17 17 17 17 17 17 17 17 17 17
16 16 16 16 18 18 19 21 22 20 18 18 18 17 18 18 16 16 18 18 19 18 18 18 18 18 17 17 17 17 17 17 17 17 17 17 17 17 17 17 16 16 16 16
17 16 16 16 17 17 19 20 21 19 17 18 18 17 17 16 16 17 18 18 18 18 18 18 18 17 17 17 17 17 17 17 17 17 17 17 16 16 16 16 16 16 16 16
16 15 15 15 16 17 18 18 17 16 17 18 18 18 17 17 17 17 17 18 18 17 17 17 17 17 17 16 16 16 16 16 16 16 16 16 16 16 16 16 15 15 15 15
15 15 14 14 15 16 18 17 18 18 17 17 18 17 17 17 17 17 17 17 17 17 16 16 16 16 16 16 16 16 16 16 15 15 15 15 15 15 15 15 15 15 15 14
15 15 14 14 15 16 17 17 18 18 18 17 17 17 17 17 17 17 16 16 16 16 16 16 16 16 16 16 15 15 15 15 15 15 15 15 15 15 15 14 14 14 14 14
15 15 14 14 15 16 16 17 17 17 17 17 17 17 17 16 16 16 16 16 16 16 16 16 16 15 15 15 15 15 15 15 15 15 14 14 14 14 14 14 14 14 14 14
14 14 13 13 14 14 15 17 17 17 17 16 16 16 16 16 16 16 16 15 15 15 15 15 15 15 15 15 15 15 15 14 14 14 14 14 14 14 13 13 13 13 13 13
Wind_Speed
3 2 5 9 9 9 7 6 6 7 5 1 3 5 10 11 9 9 11 11 12 12 11 12 14 14 12 10 10 9 9 7 6 4 4 4 4 4 4 6 8 10 9 9
2 6 11 9 8 6 6 5 6 7 3 1 3 3 7 11 12 12 12 12 13 11 10 12 12 13 13 12 11 10 9 8 7 6 4 4 4 4 4 5 6 9 9 8
8 9 7 7 8 7 7 6 5 4 4 2 3 2 2 5 7 9 10 12 13 15 15 14 14 13 13 12 12 11 10 9 7 6 4 3 3 2 3 4 4 6 8 8
7 9 6 6 8 7 8 8 6 4 1 3 2 2 5 5 6 9 11 11 13 14 13 13 15 14 14 13 12 10 10 9 8 7 6 6 6 5 5 5 5 5 7 8
6 5 5 7 10 7 8 7 5 3 3 1 2 3 5 2 6 10 11 12 12 14 14 14 16 15 14 12 11 10 9 8 8 7 7 7 5 5 4 4 5 5 5 6
8 6 5 7 8 5 3 2 5 5 4 1 4 4 4 4 8 8 10 12 11 12 13 13 12 11 10 10 10 10 10 9 8 8 7 7 7 6 5 5 6 5 4 5
7 7 5 3 3 6 2 5 4 5 4 5 3 3 5 7 6 8 10 11 10 8 11 11 11 11 11 12 12 10 10 10 9 9 8 7 7 7 7 6 6 6 5 5
2 7 5 3 4 4 3 9 7 5 4 4 4 1 5 3 3 4 7 8 8 7 8 10 12 13 13 13 12 12 12 10 10 10 9 7 7 6 5 5 5 5 5 6
3 6 6 5 3 5 2 3 8 7 2 0 3 3 4 2 3 4 3 5 6 7 8 10 12 11 11 11 11 11 11 10 11 11 9 8 7 7 6 6 5 4 4 5
5 4 6 5 4 2 5 5 5 5 3 1 3 3 3 2 2 3 4 5 5 6 7 8 9 9 9 9 8 8 8 10 10 10 10 9 8 8 7 6 6 5 5 5
4 2 6 5 1 3 1 2 4 4 5 6 3 5 4 7 6 6 4 5 7 7 7 8 8 8 8 7 7 7 7 7 8 9 8 8 7 7 6 6 6 6 5 5
2 5 2 6 6 2 3 4 5 4 2 4 4 5 3 4 4 4 4 4 5 6 6 8 8 7 6 6 7 7 6 6 7 8 7 7 6 6 6 7 7 6 6 6
3 5 2 8 8 7 4 2 2 4 4 4 4 4 1 2 4 4 5 5 5 5 6 6 7 7 7 6 6 6 6 6 6 6 6 6 6 6 7 8 7 6 6 5
4 4 6 6 6 4 5 6 3 3 3 3 6 5 2 1 3 3 4 5 5 5 6 5 5 6 6 6 6 5 5 5 5 5 6 5 6 6 7 7 6 6 6 5
5 3 2 3 4 2 3 6 5 2 5 6 6 5 6 4 5 4 5 7 6 5 5 5 4 4 4 4 4 4 4 4 5 5 6 6 5 4 4 5 5 5 6 6
4 3 2 4 4 5 5 6 5 3 1 4 5 2 3 3 5 6 6 7 6 4 4 4 4 5 4 3 3 3 3 4 5 6 6 5 4 4 4 3 3 4 5 5
1 3 3 2 5 5 4 3 1 2 2 3 3 4 3 4 5 7 6 6 5 5 4 3 3 4 4 3 3 2 2 3 4 4 4 4 4 4 4 4 3 4 4 4
5 3 3 1 3 2 6 2 4 5 5 4 3 2 4 6 5 5 6 6 5 4 4 3 3 2 2 2 2 2 2 3 3 3 3 3 4 5 4 4 4 4 3 3
7 7 4 3 2 4 5 4 1 3 4 4 4 4 4 6 7 3 2 4 6 5 5 4 3 3 2 2 2 2 1 1 2 2 3 3 4 4 4 4 4 3 3 3
4 6 5 3 3 4 4 5 1 6 2 4 4 4 2 3 2 2 2 1 2 3 3 3 3 3 2 2 3 3 1 1 1 2 2 3 3 4 4 4 3 2 3 3
3 3 3 4 4 5 5 6 4 2 4 1 2 3 2 1 3 3 1 1 2 3 3 3 4 3 3 2 2 2 0 2 3 2 1 1 2 3 3 3 2 2 2 3
3 2 3 3 4 6 4 4 3 5 2 2 2 2 2 1 1 2 2 2 2 2 2 2 2 2 2 2 2 1 2 3 1 1 1 1 1 1 1 2 2 2 3 3
1 4 4 4 5 4 1 2 3 4 3 1 1 1 2 1 1 2 1 2 1 1 1 1 2 2 1 1 2 2 3 2 1 1 1 1 0 0 1 2 3 2 2 3
3 2 3 2 1 0 2 2 3 4 3 1 2 2 2 2 1 1 1 0 1 0 1 1 2 2 1 2 2 3 3 2 2 1 1 1 0 0 0 1 2 2 2 3
3 2 2 1 2 1 2 1 2 3 3 3 3 2 2 2 1 2 2 1 1 1 1 1 2 2 2 2 2 2 2 2 2 2 1 1 1 2 1 1 1 2 2 3
3 3 4 5 6 4 4 3 2 3 2 2 2 2 1 2 2 1 1 1 2 1 1 1 2 2 2 1 2 2 2 2 2 2 2 2 1 1 2 1 0 1 1 0
Wind_Direction
244 123 231 233 221 216 233 247 264 277 268 118 167 166 175 178 173 168 162 166 175 181 177 170 166 165 165 167 167 170 169 174 167 160 166 169 175 171 171 178 178 180 181 181
350 245 233 232 242 242 243 250 267 287 290 191 176 190 183 175 184 183 174 178 180 175 172 175 170 169 171 172 173 174 176 175 175 177 176 172 164 167 172 174 180 186 184 182
219 240 236 234 246 246 252 222 227 246 322 3 96 12 194 191 189 187 185 186 185 182 179 176 176 176 176 177 176 178 178 176 177 172 155 148 130 128 153 170 184 191 188 187
244 247 251 250 253 239 256 240 213 216 201 267 143 210 258 209 197 195 194 191 190 187 180 179 177 177 180 181 177 175 174 172 175 172 167 165 171 179 192 187 190 193 192 192
254 243 241 250 249 233 234 233 209 198 170 326 335 144 267 202 205 212 201 195 189 189 185 184 183 181 181 178 177 176 172 173 176 176 178 177 180 184 180 178 186 195 198 198
256 261 227 234 253 247 238 35 18 43 71 312 247 170 255 230 205 202 201 198 194 193 187 186 182 175 177 176 175 177 176 180 181 179 179 180 181 182 179 187 193 200 203 205
301 293 276 261 304 318 49 84 25 352 4 257 260 147 235 242 201 181 184 189 186 183 181 177 174 176 179 179 180 181 181 183 184 183 185 187 188 184 190 191 194 195 201 208
292 295 286 256 198 222 220 140 158 203 224 268 333 206 264 244 181 163 168 168 166 164 169 173 176 180 180 180 183 184 186 189 186 187 192 192 187 187 195 193 189 197 206 210
195 263 289 291 254 167 176 177 174 154 182 253 292 281 315 36 92 109 131 142 149 158 166 171 170 176 180 182 186 185 187 190 191 191 191 194 193 192 196 195 191 197 206 210
169 252 292 303 357 340 168 163 93 112 145 218 281 262 225 242 187 159 157 163 165 161 160 162 167 171 174 176 180 182 183 192 195 194 195 198 199 201 199 192 196 201 206 206
133 163 310 355 10 275 3 77 102 119 147 158 213 267 229 197 191 170 170 163 164 156 162 159 159 164 164 159 164 175 183 187 195 196 196 198 198 201 198 199 202 201 204 205
135 128 269 274 272 250 153 156 132 143 227 163 165 253 282 173 159 139 134 139 143 152 159 155 152 151 155 167 173 171 172 180 192 193 193 199 198 194 201 210 211 203 204 208
111 107 37 337 342 358 28 35 106 134 128 152 162 238 332 101 94 103 120 123 128 134 132 144 147 154 161 170 174 172 179 183 181 178 187 196 198 198 207 214 214 210 209 210
99 105 156 197 234 280 320 324 338 103 146 197 202 196 270 173 112 89 116 120 114 121 123 130 140 151 159 171 177 176 183 184 177 174 179 190 201 208 212 214 212 213 209 205
80 107 153 217 254 312 315 312 320 274 198 188 205 186 213 195 163 147 136 122 111 114 122 128 136 140 142 146 156 166 174 180 177 177 185 196 201 205 217 214 212 210 206 206
56 104 56 349 339 353 331 322 338 358 55 137 136 199 227 151 106 103 115 121 121 120 120 125 131 134 134 142 156 160 169 178 175 181 194 196 191 193 206 217 214 210 207 205
61 98 72 297 316 10 320 310 49 44 26 137 176 213 163 119 126 133 134 129 142 149 142 135 135 140 148 163 158 157 173 163 164 176 186 184 178 188 200 202 191 204 207 201
150 119 129 139 27 247 245 294 88 66 31 52 101 136 141 140 141 129 135 135 145 152 151 142 136 132 149 157 159 167 161 157 156 163 179 193 191 195 204 198 200 208 203 201
160 145 133 133 190 267 296 322 98 100 9 18 85 86 82 105 80 54 80 132 157 168 164 158 155 147 148 150 152 141 141 149 146 170 186 207 208 200 202 207 215 213 195 209
71 112 131 149 172 221 250 304 326 97 41 9 69 85 75 63 87 267 298 44 142 149 155 157 151 137 148 179 154 138 141 164 216 227 211 207 208 200 205 210 212 209 194 207
26 50 140 173 201 246 267 319 23 119 211 308 81 105 81 55 215 235 276 47 121 141 155 156 150 161 189 192 143 138 167 229 235 228 199 198 200 204 207 206 198 181 181 178
180 164 191 163 190 243 302 30 120 189 198 120 92 94 87 95 67 54 51 58 87 105 130 137 155 190 204 178 153 160 243 246 221 170 165 168 183 207 202 180 189 170 172 177
170 191 185 180 206 254 341 112 169 155 128 123 107 95 105 104 87 58 40 40 59 107 167 177 172 193 233 198 159 207 256 256 188 156 183 233 268 216 188 171 170 173 180 190
324 46 94 74 275 205 83 91 82 98 114 138 136 110 100 134 132 118 119 348 322 239 207 175 156 171 247 271 246 225 237 218 173 186 203 201 153 147 197 165 158 168 193 209
278 16 77 114 239 14 348 157 134 97 77 64 66 77 109 128 177 185 187 215 212 214 216 157 156 186 227 244 248 246 233 179 173 187 198 199 195 181 165 152 165 175 185 198
259 197 178 222 232 192 243 248 138 114 114 118 107 82 99 148 182 172 183 215 201 190 209 182 182 195 224 233 255 261 238 189 183 195 205 207 195 183 174 174 155 54 103 300
Height
1477 1485 1491 1487 1484 1485 1488 1492 1493 1485 1476 1480 1485 1487 1487 1488 1490 1492 1493 1496 1498 1500 1502 1503 1505 1507 1510 1511 1513 1514 1516 1517 1519 1520 1521 1521 1522 1524 1525 1527 1529 1532 1534 1535
1483 1487 1479 1476 1477 1480 1484 1491 1491 1483 1475 1479 1486 1487 1485 1486 1487 1489 1491 1494 1496 1499 1500 1502 1504 1506 1508 1510 1511 1513 1515 1517 1518 1519 1520 1521 1522 1524 1525 1527 1529 1531 1533 1535
1486 1479 1471 1474 1477 1481 1483 1488 1487 1485 1479 1480 1487 1496 1491 1487 1487 1489 1490 1491 1494 1495 1496 1498 1501 1503 1506 1508 1509 1512 1514 1515 1517 1519 1520 1521 1522 1523 1525 1526 1528 1530 1532 1534
1478 1470 1471 1473 1475 1476 1485 1473 1475 1478 1489 1497 1492 1514 1498 1489 1488 1487 1487 1488 1490 1492 1493 1494 1497 1500 1502 1505 1508 1511 1513 1514 1516 1518 1519 1519 1520 1521 1523 1525 1527 1530 1531 1533
1476 1468 1470 1473 1470 1468 1472 1465 1470 1475 1486 1497 1495 1508 1504 1492 1492 1486 1484 1484 1485 1487 1489 1491 1493 1497 1500 1503 1506 1509 1511 1513 1515 1516 1517 1519 1519 1521 1523 1525 1527 1528 1530 1531
1469 1463 1464 1464 1460 1461 1462 1468 1474 1483 1495 1511 1499 1506 1509 1494 1487 1482 1481 1482 1483 1485 1487 1490 1493 1497 1500 1502 1505 1508 1510 1511 1513 1515 1516 1517 1518 1520 1522 1523 1525 1527 1528 1530
1475 1465 1460 1459 1464 1462 1466 1487 1509 1513 1521 1516 1497 1501 1501 1481 1476 1476 1477 1479 1481 1483 1485 1488 1492 1495 1498 1501 1503 1505 1508 1509 1511 1513 1514 1515 1517 1519 1520 1521 1523 1525 1526 1527
1489 1485 1464 1458 1463 1469 1470 1484 1511 1522 1523 1515 1499 1503 1491 1475 1473 1472 1473 1476 1479 1480 1483 1486 1489 1492 1495 1498 1501 1503 1504 1506 1509 1510 1512 1513 1515 1517 1518 1520 1521 1523 1524 1525
1487 1484 1461 1456 1454 1460 1470 1479 1481 1501 1507 1516 1509 1497 1484 1474 1473 1473 1473 1475 1477 1479 1481 1484 1486 1490 1492 1495 1498 1500 1502 1504 1506 1507 1509 1511 1512 1514 1516 1518 1519 1520 1521 1523
1473 1481 1467 1458 1455 1456 1460 1468 1486 1500 1515 1523 1513 1503 1497 1483 1477 1473 1473 1474 1476 1478 1481 1483 1486 1488 1491 1494 1496 1499 1500 1502 1503 1505 1506 1508 1509 1511 1513 1515 1516 1517 1519 1520
1468 1482 1477 1468 1468 1469 1467 1471 1483 1497 1502 1517 1522 1510 1478 1477 1473 1473 1473 1474 1475 1478 1480 1482 1484 1487 1490 1493 1495 1497 1498 1500 1502 1503 1504 1505 1506 1508 1510 1511 1512 1513 1515 1516
1467 1481 1488 1476 1464 1459 1463 1469 1481 1497 1502 1505 1512 1506 1472 1472 1472 1472 1473 1475 1476 1478 1480 1482 1484 1486 1489 1492 1493 1494 1495 1497 1499 1500 1501 1502 1504 1505 1506 1507 1508 1510 1511 1512
1466 1482 1497 1491 1482 1469 1468 1468 1473 1483 1495 1504 1509 1501 1474 1473 1473 1472 1473 1474 1475 1477 1479 1481 1483 1484 1487 1489 1491 1492 1494 1494 1496 1497 1498 1499 1500 1501 1502 1503 1505 1506 1507 1508
1462 1480 1492 1498 1492 1480 1476 1471 1469 1481 1496 1499 1494 1490 1481 1476 1475 1474 1473 1473 1475 1477 1478 1480 1481 1482 1484 1486 1488 1489 1490 1492 1493 1494 1495 1496 1497 1498 1499 1500 1501 1502 1503 1504
1465 1480 1478 1479 1474 1472 1472 1471 1468 1473 1479 1487 1484 1484 1480 1475 1474 1473 1473 1474 1476 1477 1478 1478 1479 1480 1482 1484 1485 1487 1488 1490 1491 1491 1492 1493 1494 1495 1496 1496 1497 1498 1499 1500
1469 1477 1478 1479 1472 1471 1472 1469 1466 1468 1470 1474 1476 1480 1473 1472 1472 1473 1474 1474 1475 1477 1477 1478 1478 1479 1480 1482 1483 1485 1486 1487 1488 1488 1489 1490 1490 1491 1492 1492 1494 1494 1495 1496
1474 1479 1486 1489 1478 1475 1482 1472 1470 1471 1470 1472 1478 1477 1473 1473 1472 1472 1473 1474 1475 1476 1476 1477 1477 1478 1479 1480 1482 1482 1483 1484 1485 1485 1486 1486 1487 1488 1489 1489 1490 1490 1491 1492
1473 1480 1489 1491 1486 1494 1483 1466 1465 1469 1470 1469 1470 1471 1471 1471 1471 1472 1473 1474 1475 1476 1476 1476 1477 1477 1478 1479 1480 1480 1481 1482 1482 1483 1483 1483 1483 1484 1485 1485 1486 1486 1487 1488
1463 1475 1488 1496 1497 1489 1476 1467 1466 1471 1476 1471 1471 1472 1471 1471 1471 1474 1474 1473 1474 1475 1475 1476 1476 1476 1477 1477 1477 1478 1479 1479 1479 1480 1480 1480 1480 1481 1481 1481 1482 1483 1484 1484
1465 1470 1483 1491 1493 1494 1481 1467 1463 1467 1481 1474 1472 1472 1472 1471 1477 1477 1474 1473 1473 1474 1474 1474 1474 1475 1476 1476 1475 1475 1475 1475 1476 1476 1476 1477 1478 1478 1478 1478 1479 1479 1480 1481
1477 1479 1484 1489 1491 1484 1471 1465 1464 1480 1483 1474 1473 1472 1472 1473 1474 1473 1472 1471 1471 1471 1472 1472 1472 1473 1473 1474 1473 1473 1473 1473 1473 1474 1474 1474 1475 1475 1475 1476 1476 1477 1477 1478
1480 1484 1485 1487 1491 1487 1467 1466 1471 1475 1472 1472 1471 1471 1471 1471 1471 1471 1470 1470 1470 1470 1470 1470 1470 1471 1471 1471 1471 1471 1470 1470 1470 1470 1471 1471 1472 1472 1472 1472 1473 1473 1474 1474
1475 1476 1477 1480 1482 1472 1467 1467 1469 1469 1470 1471 1471 1470 1470 1470 1469 1469 1470 1469 1469 1469 1468 1468 1468 1468 1469 1469 1469 1468 1468 1468 1468 1467 1467 1468 1468 1468 1469 1469 1469 1470 1471 1471
1472 1469 1473 1475 1473 1470 1469 1468 1469 1469 1469 1469 1470 1469 1469 1469 1469 1469 1468 1468 1468 1467 1467 1466 1466 1466 1467 1467 1466 1466 1465 1465 1465 1464 1464 1464 1464 1465 1465 1465 1465 1466 1467 1468
1472 1471 1474 1475 1472 1471 1469 1469 1468 1468 1468 1468 1468 1468 1468 1467 1468 1468 1467 1466 1466 1466 1466 1465 1464 1464 1465 1464 1464 1463 1463 1463 1462 1462 1462 1461 1462 1462 1462 1462 1462 1463 1463 1464
1470 1471 1474 1475 1469 1470 1469 1468 1467 1466 1466 1466 1466 1466 1466 1466 1466 1465 1465 1465 1464 1464 1464 1464 1463 1463 1462 1462 1461 1461 1461 1460 1459 1459 1459 1459 1459 1459 1460 1460 1460 1460 1461 1461